Regional Weather Roundup
Issued by NWS

Home | Current Version | Previous Version | Text Only | Print | Product List | Glossary Off
Versions: 1 2 3 4 5 6 7 8 9 10 11 12 13 14 15 16 17 18 19 20 21 22 23 24 25 26 27 28 29 30 31 32 33 34 35 36 37 38 39 40 41 42 43 44 45 46 47 48 49 50

000
ASUS43 KFSD 281802
RWRSD

WEATHER ROUNDUP FOR SOUTH DAKOTA
NATIONAL WEATHER SERVICE SIOUX FALLS SD
1200 PM CST FRI NOV 28 2014

NOTE: "FAIR" INDICATES FEW OR NO CLOUDS BELOW 12,000 FEET WITH NO
SIGNIFICANT WEATHER AND/OR OBSTRUCTIONS TO VISIBILITY.


SDZ001>005-009-010-012>017-281900-
NORTHWEST AND NORTH CENTRAL SOUTH DAKOTA

CITY           SKY/WX    TMP DP  RH WIND       PRES   REMARKS
BUFFALO          N/A     49  32  52 W5        29.55F
FAITH            N/A     40  27  59 S9        29.62F
MOBRIDGE       MOSUNNY   26  19  74 SE9       29.67F WCI  17
$$

SDZ012>016-024>037-041>051-057-063-072>074-281900-
SOUTHWEST AND SOUTH CENTRAL SOUTH DAKOTA

CITY           SKY/WX    TMP DP  RH WIND       PRES   REMARKS
RAPID CTY ARPT PTSUNNY   55  35  47 CALM      29.67F
PIERRE         SUNNY     31  21  66 N5        29.68F WCI  26
CUSTER         PTSUNNY   51  21  30 W13G21    29.75F
ELLSWORTH AFB  PTSUNNY   49  33  55 CALM      29.65F
PHILIP         MOSUNNY   48  31  51 W5        29.66F
PINE RIDGE     SUNNY     57  28  33 W15       29.73F
WINNER         FAIR      57  29  34 NW8       29.65F
$$

SDZ004>011-016>023-039-040-281900-
NORTHEAST SOUTH DAKOTA

CITY           SKY/WX    TMP DP  RH WIND       PRES   REMARKS
ABERDEEN       PTSUNNY   20  14  77 NE8       29.76F WCI  10
WATERTOWN      CLOUDY    18  13  80 E7        29.74F WCI   9
SISSETON         N/A     14  10  84 SE8       29.82F WCI   3
$$

SDZ017-020-022-023-036>040-048>070-281900-
SOUTHEAST SOUTH DAKOTA

CITY           SKY/WX    TMP DP  RH WIND       PRES   REMARKS
SIOUX FALLS    PTSUNNY   29  23  78 E10       29.73F WCI  20
HURON          MOSUNNY   32  22  66 E5        29.72F WCI  27
MITCHELL       MOSUNNY   35  26  69 E10       29.71F WCI  27
YANKTON        MOSUNNY   37  25  60 E9        29.72F
$$

ABBREVIATIONS USED IN REMARKS
   TC - TEMPERATURE IN CELSIUS
  WCI - WIND CHILL INDEX
   HX - HEAT INDEX
  VSB - VISIBILITY




USA.gov is the U.S. government's official web portal to all federal, state and local government web resources and services.